Rabat-Sale, Morocco

9:55 AM WEST on April 26, 2017 (GMT +0100)
Rabat-Sale

Weather History for GMME - September, 2013

Change the Weather History Date:

Monday, September 23, 2013

  Actual Average Record
Temperature  
Mean Temperature 74 °F -  
Max Temperature 79 °F 74 °F 85 °F (2012)
Min Temperature 66 °F 58 °F 57 °F (1996)
Cooling Degree Days 8    
Growing Degree Days 24 (Base 50)    
Moisture  
Dew Point 64 °F    
Average Humidity 73    
Maximum Humidity 88    
Minimum Humidity 50    
Precipitation  
Precipitation 0.00 in 0.05 in - ()
Sea Level Pressure  
Sea Level Pressure 30.05 in    
Wind  
Wind Speed 8 mph ()    
Max Wind Speed 14 mph    
Max Gust Speed 24 mph    
Visibility 3.4 miles    
Events      
Averages and records for this station are not official NWS values.
T = Trace of Precipitation, MM = Missing Value Source: Averaged Metar Reports

Daily Weather History Graph

Daily Weather History Graph

Search for Another Location

Airport or City:

Trip Planner

Search our weather history database for the weather conditions in past years. The results will help you decide how hot, cold, wet, or windy it might be!

Date:

Astronomy

Sep. 23, 2013 Rise Set
Actual Time 7:15 AM WEST 7:22 PM WEST
Civil Twilight 6:50 AM WEST 7:47 PM WEST
Nautical Twilight 6:21 AM WEST 8:16 PM WEST
Astronomical Twilight 5:52 AM WEST 8:45 PM WEST
Moon 9:57 PM WEST (9/23) 11:09 AM WEST (9/23)
Length of Visible Light 12h 56m
Length of Day
12h 06m
Waning Gibbous, 83% of the Moon is Illuminated
Sep 23
Waning Gibbous
Sep 27
Last Quarter
Oct 5
New
Oct 12
First Quarter
Oct 19
Full

Hourly Weather History & Observations

Time (WEST) Temp. Dew Point Humidity Pressure Visibility Wind Dir Wind Speed Gust Speed Precip Events Conditions
12:00 AM 71.6 °F 68.0 °F 88% 30.06 in 2.5 mi SW 10.4 mph - N/A   Mostly Cloudy
12:30 AM 71.6 °F 66.2 °F 83% 30.04 in 2.5 mi WSW 12.7 mph - N/A   Mostly Cloudy
1:00 AM 72 °F 67 °F 80% 30.05 in 2 mi WSW 12.7 mph - -   Mist
1:00 AM 71.6 °F 66.2 °F 83% 30.04 in 2.5 mi WSW 12.7 mph - N/A   Mostly Cloudy
1:30 AM 73.4 °F 66.2 °F 78% 30.04 in 2.5 mi WSW 10.4 mph - N/A   Mostly Cloudy
2:00 AM 73.4 °F 66.2 °F 78% 30.04 in 2.5 mi WSW 8.1 mph - N/A   Mostly Cloudy
2:30 AM 71.6 °F 66.2 °F 83% 30.04 in 2.5 mi WSW 8.1 mph - N/A   Mostly Cloudy
3:00 AM 71.6 °F 66.2 °F 83% 30.04 in 2.5 mi WSW 6.9 mph - N/A   Mostly Cloudy
4:00 AM 71 °F 66 °F 79% 30.04 in 2 mi SW 5.8 mph - -   Mist
4:00 AM 71.6 °F 66.2 °F 83% 30.04 in 2.5 mi SW 5.8 mph - N/A   Mostly Cloudy
4:30 AM 71.6 °F 66.2 °F 83% 30.04 in 2.5 mi SW 6.9 mph - N/A   Mostly Cloudy
5:00 AM 71.6 °F 66.2 °F 83% 30.04 in 2.5 mi SW 8.1 mph - N/A   Mostly Cloudy
5:30 AM 71.6 °F 66.2 °F 83% 30.04 in 2.5 mi SW 6.9 mph - N/A   Mostly Cloudy
6:00 AM 71.6 °F 64.4 °F 78% 30.04 in 2.5 mi SW 8.1 mph - N/A   Mostly Cloudy
6:30 AM 71.6 °F 64.4 °F 78% 30.04 in 2.5 mi SW 8.1 mph - N/A   Mostly Cloudy
7:00 AM 72 °F 64 °F 71% 30.06 in 2 mi SW 6.9 mph - -   Mist
7:00 AM 71.6 °F 64.4 °F 78% 30.06 in 2.5 mi SW 6.9 mph - N/A   Mostly Cloudy
7:30 AM 71.6 °F 64.4 °F 78% 30.06 in 2.5 mi SSW 6.9 mph - N/A   Mostly Cloudy
8:00 AM 73.4 °F 64.4 °F 73% 30.06 in 2.5 mi SSW 8.1 mph - N/A   Mostly Cloudy
8:30 AM 73.4 °F 64.4 °F 73% 30.06 in 2.5 mi SSW 4.6 mph - N/A   Mostly Cloudy
9:00 AM 73.4 °F 64.4 °F 73% 30.06 in 2.5 mi SSW 8.1 mph - N/A   Mostly Cloudy
9:30 AM 73.4 °F 64.4 °F 73% 30.06 in 2.5 mi WSW 5.8 mph - N/A   Mostly Cloudy
10:00 AM 75 °F 64 °F 61% 30.08 in 2 mi SSW 5.8 mph - -   Mist
10:00 AM 75.2 °F 64.4 °F 69% 30.06 in 2.5 mi SSW 5.8 mph - N/A   Mostly Cloudy
10:01 AM 75.2 °F 64.4 °F 69% 30.06 in 3.1 mi SSW 4.6 mph - N/A   Mostly Cloudy
10:30 AM 75.2 °F 64.4 °F 69% 30.06 in 3.1 mi West 6.9 mph - N/A   Mostly Cloudy
11:00 AM 75.2 °F 64.4 °F 69% 30.06 in 3.7 mi West 9.2 mph - N/A   Mostly Cloudy
11:30 AM 75.2 °F 66.2 °F 73% 30.09 in 3.7 mi West 8.1 mph - N/A   Mostly Cloudy
12:00 PM 75.2 °F 62.6 °F 65% 30.09 in 3.7 mi West 11.5 mph - N/A   Mostly Cloudy
1:00 PM 77 °F 63 °F 52% 30.07 in 5 mi West 11.5 mph - -   Mostly Cloudy
1:00 PM 77.0 °F 62.6 °F 61% 30.06 in 5.0 mi West 11.5 mph - N/A   Mostly Cloudy
1:30 PM 78.8 °F 62.6 °F 57% 30.06 in 5.0 mi WNW 12.7 mph - N/A   Mostly Cloudy
2:00 PM 78.8 °F 62.6 °F 57% 30.06 in 5.0 mi WNW 13.8 mph - N/A   Scattered Clouds
2:30 PM 78.8 °F 62.6 °F 57% 30.04 in 5.0 mi WNW 11.5 mph - N/A   Scattered Clouds
3:00 PM 78.8 °F 62.6 °F 57% 30.04 in 5.0 mi WNW 13.8 mph - N/A   Scattered Clouds
3:30 PM 78.8 °F 62.6 °F 57% 30.04 in 5.0 mi WNW 12.7 mph 24.2 mph N/A   Scattered Clouds
4:00 PM 79 °F 64 °F 50% 30.03 in 5 mi WNW 12.7 mph - -   Partly Cloudy
4:00 PM 78.8 °F 64.4 °F 61% 30.04 in 5.0 mi WNW 12.7 mph - N/A   Scattered Clouds
4:30 PM 77.0 °F 62.6 °F 61% 30.04 in 5.0 mi NW 10.4 mph - N/A   Scattered Clouds
5:00 PM 77.0 °F 64.4 °F 65% 30.04 in 5.0 mi NNW 9.2 mph - N/A   Mostly Cloudy
6:00 PM 73.4 °F 64.4 °F 73% 30.04 in 5.0 mi NW 8.1 mph - N/A   Scattered Clouds
6:30 PM 73.4 °F 64.4 °F 73% 30.04 in 5.0 mi NW 6.9 mph - N/A   Scattered Clouds
7:00 PM 73 °F 64 °F 66% 30.05 in 4 mi NW 3.5 mph - -   Mostly Cloudy
7:00 PM 73.4 °F 64.4 °F 73% 30.04 in 3.7 mi NW 3.5 mph - N/A   Mostly Cloudy
7:30 PM 71.6 °F 64.4 °F 78% 30.04 in 3.7 mi Calm Calm - N/A   Mostly Cloudy
8:00 PM 71.6 °F 62.6 °F 73% 30.04 in 3.7 mi Calm Calm - N/A   Mostly Cloudy
8:30 PM 71.6 °F 64.4 °F 78% 30.06 in 3.7 mi Calm Calm - N/A   Mostly Cloudy
9:00 PM 71.6 °F 64.4 °F 78% 30.06 in 3.7 mi Calm Calm - N/A   Mostly Cloudy
9:30 PM 71.6 °F 62.6 °F 73% 30.04 in 3.7 mi WNW 6.9 mph - N/A   Scattered Clouds
10:00 PM 71 °F 64 °F 72% 30.06 in 4 mi Calm Calm - -   Scattered Clouds
10:00 PM 71.6 °F 64.4 °F 78% 30.06 in 3.7 mi Calm Calm - N/A   Scattered Clouds
10:30 PM 69.8 °F 64.4 °F 83% 30.06 in 3.7 mi Calm Calm - N/A   Scattered Clouds
11:00 PM 68.0 °F 62.6 °F 83% 30.06 in 3.7 mi Calm Calm - N/A   Scattered Clouds
11:30 PM 66.2 °F 62.6 °F 88% 30.04 in 3.7 mi Calm Calm - N/A   Scattered Clouds